Location: Camaret
(48.2753°N, 4.5961°W)
Time: 01:18:18
(UTC+00:00)

Cosmos 1745 Rocket - Pass Details

Date: 29 October 2020
Orbit: 953 x 997 km, 83.0° (Epoch: 26 November)

Event Time Altitude Azimuth Distance (km) Brightness Sun altitude
Rises 18:06:19 0° 354° (N) 3,694 7.0 -10.9°
Reaches altitude 10° 18:08:55 10° 359° (N) 2,748 6.3 -11.4°
Maximum altitude 18:15:03 51° 75° (ENE) 1,233 4.2 -12.4°
Drops below altitude 10° 18:21:11 10° 150° (SSE) 2,754 6.1 -13.4°
Sets 18:23:48 0° 156° (SSE) 3,702 6.8 -13.8°
